Overview Statistics Trail Chart Weather Telemetry Raw packets
 

This is the latest recevied weather packets stored in our database for station/object IU5JAE-13. If no packets are shown the sender has not sent any weather packets the latest 10 day(s).

<< 36 37 38 39 40 41 42 >>
Time Temp. Humidity Pressure Rain* Wind** Luminosity Snow
1788160222 23.89° C 68% 1017.7 hPa 0 mm - 237 W/m² -
1788159619 22.22° C 72% 1017.7 hPa 0 mm - 212 W/m² -
1788159017 21.67° C 75% 1017.6 hPa 0 mm - 188 W/m² -
1788158435 21.67° C 73% 1017.6 hPa 0 mm - 162 W/m² -
1788157832 21.67° C 74% 1017.5 hPa 0 mm - 133 W/m² -
1788157230 21.11° C 75% 1017.5 hPa 0 mm - 101 W/m² -
1788156627 21.67° C 75% 1017.4 hPa 0 mm - 83 W/m² -
1788156025 21.11° C 76% 1017.4 hPa 0 mm - 60 W/m² -
1788155422 21.11° C 75% 1017.2 hPa 0 mm - 49 W/m² -
1788154820 21.11° C 74% 1017.3 hPa 0 mm - 41 W/m² -
1788154218 20° C 77% 1017.3 hPa 0 mm - 33 W/m² -
1788153635 18.33° C 85% 1017.2 hPa 0 mm - 24 W/m² -
1788153033 17.78° C 88% 1017.1 hPa 0 mm - 16 W/m² -
1788152431 17.22° C 89% 1017 hPa 0 mm - 9 W/m² -
1788151828 17.78° C 88% 1016.9 hPa 0 mm - 5 W/m² -
1788151226 17.78° C 88% 1016.9 hPa 0 mm - 2 W/m² -
1788150623 17.78° C 88% 1016.8 hPa 0 mm - 0 W/m² -
1788150021 17.78° C 88% 1016.8 hPa 0 mm - 0 W/m² -
1788149418 17.78° C 88% 1016.8 hPa 0 mm - 0 W/m² -
1788148832 17.78° C 88% 1016.7 hPa 0 mm - 0 W/m² -
1788148233 17.78° C 88% 1016.9 hPa 0 mm - 0 W/m² -
1788147631 17.78° C 88% 1016.9 hPa 0 mm - 0 W/m² -
1788147029 17.78° C 88% 1016.9 hPa 0 mm - 0 W/m² -
1788146426 17.78° C 87% 1016.8 hPa 0 mm - 0 W/m² -
1788145824 17.78° C 87% 1017 hPa 0 mm - 0 W/m² -

* Rain latest hour (hover to see other rain measurements)
** Current wind speed in m/s (hover to see current wind gust speed)